Weather in Steszew

Poland     52°16′55″N   16°42′13″E
temp.,
°C
wind,
m/s
gust,
m/s
humid.,
%
clouds,
%
prec.,
mm/h
press.,
hPa
HPBL,
m
18 may, wed
wed1823:00+9e5125369 0.0 1025387
02:00+6e411606 0.0 1027289
05:00+3ese38645 0.0 1029156
08:00+8se4553100 0.0 1030322
11:00+14se443751 0.0 1029758
14:00+17sse3432100 0.0 10281077
17:00+18sse343426 0.0 10271050
20:00+14se23565 0.0 102631
19 may, thu
thu1923:00+9sse33635 0.0 102745
02:00+7sse35605 0.0 102675
05:00+7sse3562100 0.0 102581
08:00+13s34616 0.0 1025201
11:00+20s335179 0.0 1024531
14:00+23s3442100 0.0 10231084
17:00+24ssw3447100 0.0 10211169
20:00+19s4966100 0.0 1020169
20 may, fri
fri2023:00+15ssw3471100 0.0 102064
02:00+15ssw3765100 0.0 1019142
05:00+14wsw3573100 0.0 101978
08:00+18wnw357881 0.3 1020271
11:00+23wnw456677 0.0 1020930
14:00+23wnw3566100 0.3 10191087
17:00+24nw4660100 0.3 10181253
20:00+20nw2276100 0.6 101734
21 may, sat
sat2123:00+17se1284100 0.0 101514
02:00+17se4994100 0.3 1012184
05:00+17s71096100 8.4 1008325
08:00+19w9148721 10.9 10081007
11:00+15w1116750 0.8 10121229
14:00+17w10155982 0.9 10132087
17:00+17w9166213 0.6 10132015
20:00+15w9177024 0.9 10131485
22 may, sun
sun2223:00+13wnw917693 0.1 10141340
02:00+12wnw8157898 0.1 10151194
05:00+12wnw81373100 0.1 10151197
08:00+13wnw8127359 0.1 10161017
11:00+15nw71062100 0.1 10171516
14:00+16nw6956100 0.1 10171686
17:00+16nw586198 0.0 1017960
20:00+14nnw36705 0.1 1017292